DECAYED

FENGYUN 1C DEB, 30924 (Decayed)

Orbit data source: Space-Track

FENGYUN 1C DEB, 30924 was space debris in SSO originally from a launch on Mon, 10 May 1999 UTC launched from the Taiyaun Space Center, China (TSC). Fengyun 1C debris stems from the Chinese weather satellite Fengyun-1C, which was intentionally destroyed by a Chinese anti-satellite missile in 2007. This event dramatically increased the amount of space debris, with thousands of trackable fragments posing hazards to satellites and human spaceflight. The Fengyun 1C debris cloud has become a focal point in discussions about space sustainability and the need for international regulations to prevent the creation of new debris.

Not visible in the next 10 days
Identifier
30924, 1999-025AZN
Orbit
Decayed
Country
Flag of CNCN / PRC
Related business
Manufacturer
Unknown
Mission
Decayed spacecraft
Bus & Motor
Unknown
Mass
Unknown
Launch date (UTC)
1999-05-10 (27 years ago)
Launch vehicle
Unknown
Launch site
Taiyaun Space Center, China (TSC)
Object type
Payload
Rocket body
Debris
Shape & HBR
Unknown shape, 0.1 m
Radar Cross Section
Small (<0.1 m²)

Expand to show TLE details & history
Last TLE update: 1 year ago

TLE from 1 year ago
0 FENGYUN 1C DEB
1 30924U 99025AZN 25119.47515264  .05430769  00000-0  29854-1 0  9998
2 30924  98.9162 296.8390 0027267 295.9049  63.9401 15.74801354939758
Epoch: 2025-04-29T11:24Z
TLE epoch observation values (Epoch: 2025-04-29T11:24:13.188Z)
Latitude
0.00003°
Longitude
-91.89025°
Altitude
340.297 km
Speed
7.709 km/s
True Right ascension
19h 47m 21s
True Declination
0° 00' 00"
Sunlit
Object was in daylight at epoch
Visualization orbit readout
Latitude
Unknown
Longitude
Unknown
Altitude
Unknown
Speed
Unknown
Apparent Right ascension
Unknown
Apparent Declination
Unknown
Sunlit
N/A
Visualization observer readout
Local Sidereal Time
08:41:31
Azimuth
Unknown
Elevation
Unknown
Doppler factor
Unknown
Orbital elements
Apogee altitude
360.487 km
Perigee altitude
323.838 km
Semi-major axis
6,720.299 km
Eccentricity
0.00273
Inclination
98.9162°
RAAN
296.839°
Arg. of periapsis
295.9049°
True anomaly
64.22121°
Mean anomaly
63.9401°
Eccentric anomaly
64.08061°
Mean motion
3.93967 °/min
Orbital period
91.38 mins
BSTAR
0.029854
Loading maneuver chart data...
Computing Atmospheric mass density...

Documentation

Showing up to 5 results
|